(184793) = 1995 SU72 = 2005 TJ64

Discovered at Mount Lemmon on 2005-10-06 by Mt. Lemmon Survey.

Orbit

Orbit type: Main Belt

Note: WebGL enabled browser required.

epoch2023-02-25.0
epoch JD2460000.5
perihelion date2020-04-01.43631
perihelion JD2458940.93631
argument of perihelion (°)179.14839
ascending node (°)203.28820
inclination (°)1.45359
eccentricity0.0764821
perihelion distance (AU)2.6428301
Tisserand w.r.t. Jupiter3.3
ΔV w.r.t. Earth (km/sec)10.2
semimajor axis (AU)2.8616989
mean anomaly (°)215.72228
mean daily motion (°/day)0.20359540
aphelion distance (AU)3.081
period (years)4.84
P-vector [x]0.92430058
P-vector [y]0.35002097
P-vector [z]0.15216360
Q-vector [x]-0.38153356
Q-vector [y]0.85784918
Q-vector [z]0.34427740
absolute magnitude16.89
phase slope0.15
uncertainty0
referenceMPO 745323
observations used303
oppositions16
arc length (days)10107
first opposition used1995
last opposition used2023
residual rms (arc-secs)0.71
perturbers coarse indicatorM-v
perturbers precise indicator003Ek
first observation date used1995-09-23.0
last observation date used2023-05-26.0
computer nameMPCLINUX
JD of orbit computation2456937.511751
perihelion JD uncertainty (days)1.7151E-04
argument of perihelion uncertainty (°)1.7369E-04
ascending node uncertainty (°)1.7025E-04
inclination uncertainty (°)6.2595E-06
eccentricity uncertainty 5.5986E-08
perihelion distance uncertainty (AU)1.5905E-07
Minimum Orbit Intersection Distances (in AU)
for orbit epoch: 2460000.5, reference: E2023-KF8
Mercury2.29858
Venus1.9191
Earth1.64396
Mars1.18396
Jupiter2.2997
Saturn6.25015
Uranus15.398
Neptune27.2095

Observations

311 total observations over interval: 1995 09 23.36285 – 2023 05 26.477161
These data are available for download (format description).

Date (UT) J2000 RA J2000 Dec Magn Location Ref
1995 09 23.36285 23 28 19.20 -02 12 16.2 21.9 V 691 – Steward Observatory, Kitt Peak-Spacewatch MPS 32140
1995 09 23.36830 23 28 18.97 -02 12 17.9 21.6 V 691 – Steward Observatory, Kitt Peak-Spacewatch MPS 32140
1995 09 23.37366 23 28 18.74 -02 12 19.6 22.5 V 691 – Steward Observatory, Kitt Peak-Spacewatch MPS 32140
1995 09 24.22895 23 27 40.44 -02 16 59.9 20.3 V 691 – Steward Observatory, Kitt Peak-Spacewatch MPS 32140
1995 09 24.24965 23 27 39.47 -02 17 06.6 20.3 V 691 – Steward Observatory, Kitt Peak-Spacewatch MPS 32140
1995 09 24.27047 23 27 38.49 -02 17 13.5 21.0 V 691 – Steward Observatory, Kitt Peak-Spacewatch MPS 32140
1995 09 29.21412 23 24 03.42 -02 43 29.3 20.8 V 691 – Steward Observatory, Kitt Peak-Spacewatch MPS 276140
1995 09 29.23487 23 24 02.49 -02 43 34.6   691 – Steward Observatory, Kitt Peak-Spacewatch MPS 276140
2000 09 21.26775 00 50 28.97 +06 04 53.1 20.9 V 691 – Steward Observatory, Kitt Peak-Spacewatch MPS 150820
2000 09 21.30008 00 50 27.52 +06 04 43.5 21.6 V 691 – Steward Observatory, Kitt Peak-Spacewatch MPS 150820
2000 09 21.32171 00 50 26.55 +06 04 37.4 22.1 V 691 – Steward Observatory, Kitt Peak-Spacewatch MPS 150820
2005 10 06.34260 02 05 13.99 +12 35 58.0 19.9 V G96 – Mt. Lemmon Survey MPS 147660
2005 10 06.34775 02 05 13.74 +12 35 56.4 20.0 V G96 – Mt. Lemmon Survey MPS 147660
2005 10 06.35286 02 05 13.56 +12 35 55.2 20.1 V G96 – Mt. Lemmon Survey MPS 147660
2005 10 06.39220 02 05 11.83 +12 35 45.3 19.8 V G96 – Mt. Lemmon Survey MPS 147660
2005 10 06.39432 02 05 11.76 +12 35 44.6 20.1 V G96 – Mt. Lemmon Survey MPS 147660
2005 10 06.39645 02 05 11.65 +12 35 44.2 19.6 V G96 – Mt. Lemmon Survey MPS 147660
2005 10 06.39856 02 05 11.58 +12 35 43.6 19.8 V G96 – Mt. Lemmon Survey MPS 147660
2005 10 07.32625 02 04 32.91 +12 31 42.6 19.7 V G96 – Mt. Lemmon Survey MPS 147660
2005 10 07.33267 02 04 32.59 +12 31 41.1 19.9 V G96 – Mt. Lemmon Survey MPS 147660
2005 10 07.33907 02 04 32.26 +12 31 39.5 20.1 V G96 – Mt. Lemmon Survey MPS 147661
2005 10 07.34547 02 04 32.01 +12 31 37.8 19.9 V G96 – Mt. Lemmon Survey MPS 147661
2005 10 07.38540 02 04 30.24 +12 31 27.5 20.4 V 691 – Steward Observatory, Kitt Peak-Spacewatch MPS 147661
2005 10 07.40277 02 04 29.48 +12 31 22.8 20.5 V 691 – Steward Observatory, Kitt Peak-Spacewatch MPS 147661
2005 10 07.42014 02 04 28.70 +12 31 18.3 20.5 V 691 – Steward Observatory, Kitt Peak-Spacewatch MPS 147661
2005 10 08.40812 02 03 46.40 +12 26 56.7 21.0 V 291 – LPL/Spacewatch II MPS 147661
2005 10 08.47537 02 03 43.38 +12 26 38.4 21.1 V 291 – LPL/Spacewatch II MPS 147661
2005 10 08.48569 02 03 42.92 +12 26 35.6 20.8 V 291 – LPL/Spacewatch II MPS 147661
2005 10 11.21448 02 01 42.25 +12 14 06.8 21.4 V 291 – LPL/Spacewatch II MPS 147661
2005 10 11.22171 02 01 41.93 +12 14 04.8 21.3 V 291 – LPL/Spacewatch II MPS 147661
2005 10 11.22894 02 01 41.56 +12 14 02.9 21.3 V 291 – LPL/Spacewatch II MPS 147661
2005 10 11.38671 02 01 34.12 +12 13 18.5 20.3 V 691 – Steward Observatory, Kitt Peak-Spacewatch MPS 150820
2005 10 11.40408 02 01 33.26 +12 13 13.6 20.5 V 691 – Steward Observatory, Kitt Peak-Spacewatch MPS 150820
2005 10 11.42145 02 01 32.36 +12 13 09.1 20.9 V 691 – Steward Observatory, Kitt Peak-Spacewatch MPS 150820
2005 10 29.31735 01 47 05.28 +10 42 50.8 20.0 V 703 – Catalina Sky Survey MPS 147661
2005 10 29.32485 01 47 04.88 +10 42 50.0 20.4 V 703 – Catalina Sky Survey MPS 147661
2005 10 29.33246 01 47 04.59 +10 42 47.0 20.1 V 703 – Catalina Sky Survey MPS 147661
2005 10 29.33999 01 47 04.12 +10 42 43.7 19.5 V 703 – Catalina Sky Survey MPS 147661
2005 10 31.25951 01 45 32.83 +10 33 04.3 20.0 V G96 – Mt. Lemmon Survey MPS 150820
2005 10 31.26321 01 45 32.65 +10 33 03.6 19.8 V G96 – Mt. Lemmon Survey MPS 150820
2005 10 31.26691 01 45 32.47 +10 33 02.4 19.6 V G96 – Mt. Lemmon Survey MPS 150820
2005 11 25.24184 01 30 53.53 +08 56 44.5 20.6 V G96 – Mt. Lemmon Survey MPS 152187
2005 11 25.24867 01 30 53.38 +08 56 43.6 20.8 V G96 – Mt. Lemmon Survey MPS 152187
2005 11 25.25536 01 30 53.24 +08 56 42.6 20.9 V G96 – Mt. Lemmon Survey MPS 152187
2005 11 25.26210 01 30 53.10 +08 56 41.6 20.9 V G96 – Mt. Lemmon Survey MPS 152187
2005 12 02.15784 01 29 15.57 +08 44 38.2 21.3 V G96 – Mt. Lemmon Survey MPS 153740
2005 12 02.16634 01 29 15.46 +08 44 38.0 21.2 V G96 – Mt. Lemmon Survey MPS 153740
2005 12 02.17503 01 29 15.36 +08 44 36.7 21.7 V G96 – Mt. Lemmon Survey MPS 153740
2005 12 02.18380 01 29 15.28 +08 44 36.4 21.0 V G96 – Mt. Lemmon Survey MPS 153740
2007 01 10.41369 09 15 31.53 +13 46 52.7 21.9 V G96 – Mt. Lemmon Survey MPS 195537
2007 01 10.41870 09 15 31.28 +13 46 53.0 21.1 V G96 – Mt. Lemmon Survey MPS 195537
2007 01 10.42373 09 15 31.10 +13 46 53.5 21.0 V G96 – Mt. Lemmon Survey MPS 195537
2007 01 10.42889 09 15 30.88 +13 46 54.9 21.3 V G96 – Mt. Lemmon Survey MPS 195537
2007 01 27.27028 09 02 19.50 +14 43 15.7 20.7 V G96 – Mt. Lemmon Survey MPS 198159
2007 01 27.27807 09 02 19.14 +14 43 17.4 21.7 V G96 – Mt. Lemmon Survey MPS 198159
2007 01 27.28605 09 02 18.63 +14 43 19.6 21.4 V G96 – Mt. Lemmon Survey MPS 198159
2007 01 27.29390 09 02 18.24 +14 43 21.2 20.4 V G96 – Mt. Lemmon Survey MPS 198159
2007 02 10.32167 08 50 03.44 +15 37 00.0 20.9 V G96 – Mt. Lemmon Survey MPS 199494
2007 02 10.32949 08 50 03.08 +15 37 01.9 21.4 V G96 – Mt. Lemmon Survey MPS 199494
2007 02 10.33735 08 50 02.68 +15 37 03.4 20.6 V G96 – Mt. Lemmon Survey MPS 199494
2007 02 10.34514 08 50 02.29 +15 37 05.1 20.8 V G96 – Mt. Lemmon Survey MPS 199494
2007 02 17.27375 08 44 26.84 +16 02 01.1 21.4 V G96 – Mt. Lemmon Survey MPS 200398
2007 02 17.27824 08 44 26.59 +16 02 01.6 21.6 V G96 – Mt. Lemmon Survey MPS 200398
2007 02 17.28274 08 44 26.48 +16 02 01.8 21.5 V G96 – Mt. Lemmon Survey MPS 200398
2007 02 17.28723 08 44 26.23 +16 02 03.9 21.4 V G96 – Mt. Lemmon Survey MPS 200398
2008 03 31.33903 14 18 31.10 -13 38 43.9 21.4 V 691 – Steward Observatory, Kitt Peak-Spacewatch MPS 244719
2008 03 31.35665 14 18 30.44 -13 38 39.8 21.0 V 691 – Steward Observatory, Kitt Peak-Spacewatch MPS 244719
2008 03 31.37426 14 18 29.81 -13 38 36.5 21.7 V 691 – Steward Observatory, Kitt Peak-Spacewatch MPS 244719
2008 04 14.24932 14 08 39.92 -12 41 59.2 20.7 V 691 – Steward Observatory, Kitt Peak-Spacewatch MPS 246770
2008 04 14.26693 14 08 39.08 -12 41 54.6 20.6 V 691 – Steward Observatory, Kitt Peak-Spacewatch MPS 246770
2008 04 14.28453 14 08 38.23 -12 41 50.1 21.1 V 691 – Steward Observatory, Kitt Peak-Spacewatch MPS 246770
2008 04 27.25832 13 58 15.49 -11 41 08.2 21.5 V G96 – Mt. Lemmon Survey MPS 248890
2008 04 27.26294 13 58 15.27 -11 41 06.7 21.2 V G96 – Mt. Lemmon Survey MPS 248890
2008 04 27.26755 13 58 14.98 -11 41 05.4 21.0 V G96 – Mt. Lemmon Survey MPS 248890
2008 04 27.27218 13 58 14.80 -11 41 04.0 21.3 V G96 – Mt. Lemmon Survey MPS 248890
2008 04 28.28861 13 57 26.24 -11 36 16.8 20.8 V G96 – Mt. Lemmon Survey MPS 248890
2008 04 28.29525 13 57 25.95 -11 36 14.9 20.8 V G96 – Mt. Lemmon Survey MPS 248890
2008 04 28.30176 13 57 25.63 -11 36 12.8 20.9 V G96 – Mt. Lemmon Survey MPS 248890
2008 04 28.30832 13 57 25.30 -11 36 11.1 21.2 V G96 – Mt. Lemmon Survey MPS 248890
2010 10 29.569087 03 16 25.237 +17 15 04.99 20.42 i F51 – Pan-STARRS 1, Haleakala MPS 365149
2010 10 29.581275 03 16 24.623 +17 15 02.22 20.34 i F51 – Pan-STARRS 1, Haleakala MPS 365149
2010 10 31.19293 03 15 06.28 +17 08 54.2   691 – Steward Observatory, Kitt Peak-Spacewatch MPS 355060
2010 10 31.21065 03 15 05.44 +17 08 51.6   691 – Steward Observatory, Kitt Peak-Spacewatch MPS 355060
2010 10 31.22836 03 15 04.50 +17 08 46.3   691 – Steward Observatory, Kitt Peak-Spacewatch MPS 355060
2010 11 09.23083 03 07 19.63 +16 32 38.6 19.6 V 703 – Catalina Sky Survey MPS 357186
2010 11 09.23550 03 07 19.34 +16 32 38.2 20.2 V 703 – Catalina Sky Survey MPS 357186
2010 11 09.24009 03 07 19.05 +16 32 37.1 21.3 V 703 – Catalina Sky Survey MPS 357186
2010 11 09.24471 03 07 18.80 +16 32 35.8 20.1 V 703 – Catalina Sky Survey MPS 357186
2010 11 10.31692 03 06 21.96 +16 28 09.2 19.8 V G96 – Mt. Lemmon Survey MPS 357186
2010 11 10.32205 03 06 21.67 +16 28 07.9 19.9 V G96 – Mt. Lemmon Survey MPS 357186
2010 11 10.32723 03 06 21.38 +16 28 06.6 19.9 V G96 – Mt. Lemmon Survey MPS 357186
